Time,TemperatureF,DewpointF,PressureIn,WindDirection,WindDirectionDegrees,WindSpeedMPH,WindSpeedGustMPH,Humidity,HourlyPrecipIn,Conditions,Clouds,dailyrainin,SoftwareType,DateUTC
2013-06-05 00:04:00,66.0,65.1,29.78,SE,135,5.0,6.0,97,0.00,,,0.48,meteohub,2013-06-05 06:04:00,
2013-06-05 00:09:00,66.0,65.1,29.78,East,90,7.0,7.0,97,0.00,,,0.00,meteohub,2013-06-05 06:09:00,
2013-06-05 00:14:00,65.8,64.6,29.78,East,90,6.0,8.0,96,0.00,,,0.00,meteohub,2013-06-05 06:14:00,
2013-06-05 00:19:00,66.2,64.8,29.78,SE,135,6.0,9.0,95,0.00,,,0.00,meteohub,2013-06-05 06:19:00,
2013-06-05 00:24:00,66.4,64.6,29.77,East,90,7.0,9.0,94,0.00,,,0.00,meteohub,2013-06-05 06:24:00,
2013-06-05 00:29:00,66.6,64.8,29.78,East,90,8.0,9.0,94,0.00,,,0.00,meteohub,2013-06-05 06:29:00,
2013-06-05 00:34:00,66.6,64.4,29.78,SE,135,6.0,9.0,93,0.00,,,0.00,meteohub,2013-06-05 06:34:00,
2013-06-05 00:39:00,66.9,64.8,29.78,East,90,6.0,8.0,93,0.00,,,0.00,meteohub,2013-06-05 06:39:00,
2013-06-05 00:44:00,66.9,64.6,29.78,SE,135,4.0,8.0,92,0.00,,,0.00,meteohub,2013-06-05 06:44:00,
2013-06-05 00:50:00,66.7,64.4,29.78,East,90,8.0,8.0,92,0.00,,,0.00,meteohub,2013-06-05 06:50:00,
2013-06-05 00:55:00,67.1,64.4,29.79,ENE,68,4.0,8.0,91,0.00,,,0.00,meteohub,2013-06-05 06:55:00,
2013-06-05 01:00:00,67.3,64.2,29.79,SE,135,7.0,8.0,90,0.01,,,0.01,meteohub,2013-06-05 07:00:00,
2013-06-05 01:05:00,67.3,64.2,29.78,SE,135,4.0,8.0,90,0.01,,,0.01,meteohub,2013-06-05 07:05:00,
2013-06-05 01:10:00,66.9,63.9,29.79,SE,135,5.0,8.0,90,0.01,,,0.01,meteohub,2013-06-05 07:10:00,
2013-06-05 01:15:00,66.6,63.5,29.79,SE,135,4.0,7.0,90,0.01,,,0.01,meteohub,2013-06-05 07:15:00,
2013-06-05 01:20:00,66.4,63.3,29.80,East,90,4.0,7.0,90,0.01,,,0.01,meteohub,2013-06-05 07:20:00,
2013-06-05 01:25:00,66.4,63.7,29.79,East,90,5.0,6.0,91,0.01,,,0.01,meteohub,2013-06-05 07:25:00,
2013-06-05 01:30:00,66.2,63.5,29.79,East,90,3.0,6.0,91,0.01,,,0.01,meteohub,2013-06-05 07:30:00,
2013-06-05 01:35:00,66.2,63.5,29.79,SE,135,0.0,6.0,91,0.01,,,0.01,meteohub,2013-06-05 07:35:00,
2013-06-05 01:40:00,66.2,63.9,29.78,NE,45,3.0,5.0,92,0.01,,,0.01,meteohub,2013-06-05 07:40:00,
2013-06-05 01:45:00,66.2,63.9,29.79,East,90,2.0,3.0,92,0.01,,,0.01,meteohub,2013-06-05 07:45:00,
2013-06-05 01:50:00,65.8,63.7,29.79,East,90,4.0,4.0,93,0.00,,,0.01,meteohub,2013-06-05 07:50:00,
2013-06-05 01:55:00,65.8,63.7,29.79,East,90,4.0,4.0,93,0.00,,,0.01,meteohub,2013-06-05 07:55:00,
2013-06-05 02:00:00,65.8,63.7,29.79,NW,315,4.0,5.0,93,0.00,,,0.01,meteohub,2013-06-05 08:00:00,
2013-06-05 02:05:00,65.7,63.5,29.79,North,0,1.0,5.0,93,0.00,,,0.01,meteohub,2013-06-05 08:05:00,
2013-06-05 02:10:00,65.5,63.7,29.79,North,0,1.0,5.0,94,0.00,,,0.01,meteohub,2013-06-05 08:10:00,
2013-06-05 02:16:00,65.3,63.5,29.79,NE,45,4.0,5.0,94,0.00,,,0.01,meteohub,2013-06-05 08:16:00,
2013-06-05 02:21:00,65.3,63.5,29.79,NE,45,4.0,4.0,94,0.00,,,0.01,meteohub,2013-06-05 08:21:00,
2013-06-05 02:26:00,64.6,63.1,29.79,North,0,0.0,4.0,95,0.00,,,0.01,meteohub,2013-06-05 08:26:00,
2013-06-05 02:31:00,64.4,63.0,29.79,NE,45,0.0,4.0,95,0.00,,,0.01,meteohub,2013-06-05 08:31:00,
2013-06-05 02:36:00,64.2,62.4,29.80,East,90,0.0,4.0,94,0.00,,,0.01,meteohub,2013-06-05 08:36:00,
2013-06-05 02:42:00,64.0,62.6,29.79,North,0,0.0,0.0,95,0.00,,,0.01,meteohub,2013-06-05 08:42:00,
2013-06-05 02:47:00,63.9,62.4,29.80,North,0,0.0,0.0,95,0.00,,,0.01,meteohub,2013-06-05 08:47:00,
2013-06-05 02:52:00,63.9,62.8,29.80,NE,45,0.0,0.0,96,0.00,,,0.01,meteohub,2013-06-05 08:52:00,
2013-06-05 02:57:00,63.7,62.6,29.80,SE,135,0.0,0.0,96,0.00,,,0.01,meteohub,2013-06-05 08:57:00,
2013-06-05 03:02:00,63.5,62.4,29.79,South,180,0.0,0.0,96,0.00,,,0.01,meteohub,2013-06-05 09:02:00,
2013-06-05 03:07:00,63.3,62.2,29.79,SE,135,0.0,0.0,96,0.00,,,0.01,meteohub,2013-06-05 09:07:00,
2013-06-05 03:12:00,63.3,62.4,29.80,SE,135,0.0,0.0,97,0.00,,,0.01,meteohub,2013-06-05 09:12:00,
2013-06-05 03:17:00,63.3,62.4,29.79,SE,135,3.0,4.0,97,0.00,,,0.01,meteohub,2013-06-05 09:17:00,
2013-06-05 03:22:00,63.3,62.4,29.78,South,180,5.0,5.0,97,0.00,,,0.01,meteohub,2013-06-05 09:22:00,
2013-06-05 03:27:00,63.3,62.4,29.78,South,180,4.0,5.0,97,0.00,,,0.01,meteohub,2013-06-05 09:27:00,
2013-06-05 03:32:00,63.3,62.4,29.78,South,180,4.0,6.0,97,0.00,,,0.01,meteohub,2013-06-05 09:32:00,
2013-06-05 03:37:00,63.1,62.2,29.78,SSE,158,4.0,6.0,97,0.00,,,0.01,meteohub,2013-06-05 09:37:00,
2013-06-05 03:42:00,63.0,62.1,29.80,ESE,113,4.0,6.0,97,0.00,,,0.01,meteohub,2013-06-05 09:42:00,
2013-06-05 03:47:00,63.0,62.1,29.78,South,180,4.0,4.0,97,0.00,,,0.01,meteohub,2013-06-05 09:47:00,
2013-06-05 03:52:00,63.0,62.1,29.78,South,180,6.0,6.0,97,0.00,,,0.01,meteohub,2013-06-05 09:52:00,
2013-06-05 03:57:00,63.0,62.1,29.78,SE,135,4.0,6.0,97,0.00,,,0.01,meteohub,2013-06-05 09:57:00,
2013-06-05 04:02:00,62.8,61.9,29.78,SE,135,3.0,6.0,97,0.00,,,0.01,meteohub,2013-06-05 10:02:00,
2013-06-05 04:07:00,62.8,61.9,29.78,SE,135,3.0,6.0,97,0.00,,,0.01,meteohub,2013-06-05 10:07:00,
2013-06-05 04:12:00,62.8,61.9,29.77,SE,135,4.0,5.0,97,0.00,,,0.01,meteohub,2013-06-05 10:12:00,
2013-06-05 04:17:00,62.8,61.9,29.78,SSE,158,5.0,5.0,97,0.00,,,0.01,meteohub,2013-06-05 10:17:00,
2013-06-05 04:22:00,62.8,61.9,29.78,SE,135,4.0,5.0,97,0.00,,,0.01,meteohub,2013-06-05 10:22:00,
2013-06-05 04:27:00,62.6,61.7,29.78,SE,135,6.0,7.0,97,0.00,,,0.01,meteohub,2013-06-05 10:27:00,
2013-06-05 04:32:00,62.8,61.9,29.79,ESE,113,6.0,7.0,97,0.00,,,0.01,meteohub,2013-06-05 10:32:00,
2013-06-05 04:37:00,62.8,61.9,29.78,East,90,5.0,7.0,97,0.00,,,0.01,meteohub,2013-06-05 10:37:00,
2013-06-05 04:42:00,62.8,61.9,29.78,SE,135,5.0,7.0,97,0.00,,,0.01,meteohub,2013-06-05 10:42:00,
2013-06-05 04:47:00,63.0,62.1,29.78,South,180,4.0,7.0,97,0.00,,,0.01,meteohub,2013-06-05 10:47:00,
2013-06-05 04:52:00,63.0,62.1,29.79,East,90,4.0,7.0,97,0.00,,,0.01,meteohub,2013-06-05 10:52:00,
2013-06-05 04:57:00,63.1,62.2,29.78,East,90,7.0,7.0,97,0.00,,,0.01,meteohub,2013-06-05 10:57:00,
2013-06-05 05:02:00,63.3,62.4,29.78,East,90,3.0,7.0,97,0.00,,,0.01,meteohub,2013-06-05 11:02:00,
2013-06-05 05:07:00,63.7,62.8,29.79,SE,135,4.0,7.0,97,0.00,,,0.01,meteohub,2013-06-05 11:07:00,
2013-06-05 05:12:00,63.9,63.0,29.79,SE,135,4.0,7.0,97,0.00,,,0.01,meteohub,2013-06-05 11:12:00,
2013-06-05 05:17:00,63.9,63.0,29.79,South,180,6.0,7.0,97,0.00,,,0.01,meteohub,2013-06-05 11:17:00,
2013-06-05 05:22:00,63.7,62.6,29.79,SE,135,6.0,8.0,96,0.00,,,0.01,meteohub,2013-06-05 11:22:00,
2013-06-05 05:27:00,63.5,62.1,29.79,SE,135,5.0,8.0,95,0.00,,,0.01,meteohub,2013-06-05 11:27:00,
2013-06-05 05:32:00,63.5,62.1,29.79,ESE,113,5.0,8.0,95,0.00,,,0.01,meteohub,2013-06-05 11:32:00,
2013-06-05 05:37:00,63.5,62.1,29.81,East,90,7.0,8.0,95,0.00,,,0.01,meteohub,2013-06-05 11:37:00,
2013-06-05 05:42:00,63.9,62.4,29.81,SE,135,7.0,8.0,95,0.00,,,0.01,meteohub,2013-06-05 11:42:00,
2013-06-05 05:47:00,64.8,63.7,29.81,SE,135,5.0,8.0,96,0.00,,,0.01,meteohub,2013-06-05 11:47:00,
2013-06-05 05:52:00,65.8,64.6,29.81,ESE,113,4.0,8.0,96,0.00,,,0.01,meteohub,2013-06-05 11:52:00,
2013-06-05 05:57:00,66.9,65.1,29.81,East,90,6.0,8.0,94,0.00,,,0.01,meteohub,2013-06-05 11:57:00,
2013-06-05 06:02:00,67.6,65.3,29.81,East,90,6.0,7.0,92,0.00,,,0.01,meteohub,2013-06-05 12:02:00,
2013-06-05 06:07:00,68.4,64.4,29.82,ESE,113,6.0,6.0,87,0.00,,,0.01,meteohub,2013-06-05 12:07:00,
2013-06-05 06:12:00,69.3,64.6,29.81,East,90,5.0,8.0,85,0.00,,,0.01,meteohub,2013-06-05 12:12:00,
2013-06-05 06:17:00,69.6,64.6,29.81,East,90,8.0,8.0,84,0.00,,,0.01,meteohub,2013-06-05 12:17:00,
2013-06-05 06:22:00,69.4,63.3,29.80,East,90,8.0,8.0,81,0.00,,,0.01,meteohub,2013-06-05 12:22:00,
2013-06-05 06:27:00,69.1,63.0,29.81,East,90,6.0,9.0,81,0.00,,,0.01,meteohub,2013-06-05 12:27:00,
2013-06-05 06:32:00,68.9,62.8,29.81,East,90,8.0,9.0,81,0.00,,,0.01,meteohub,2013-06-05 12:32:00,
2013-06-05 06:37:00,68.9,62.8,29.80,East,90,7.0,9.0,81,0.00,,,0.01,meteohub,2013-06-05 12:37:00,
2013-06-05 06:42:00,69.3,63.5,29.81,SE,135,6.0,8.0,82,0.00,,,0.01,meteohub,2013-06-05 12:42:00,
2013-06-05 06:47:00,69.8,63.3,29.81,SE,135,8.0,8.0,80,0.00,,,0.01,meteohub,2013-06-05 12:47:00,
2013-06-05 06:52:00,71.1,64.2,29.81,NE,45,6.0,8.0,79,0.00,,,0.01,meteohub,2013-06-05 12:52:00,
2013-06-05 06:57:00,72.1,64.2,29.81,SE,135,7.0,8.0,76,0.00,,,0.01,meteohub,2013-06-05 12:57:00,
2013-06-05 07:02:00,73.0,64.2,29.82,East,90,5.0,8.0,74,0.00,,,0.01,meteohub,2013-06-05 13:02:00,
2013-06-05 07:07:00,74.3,63.5,29.81,East,90,8.0,10.0,69,0.00,,,0.01,meteohub,2013-06-05 13:07:00,
2013-06-05 07:12:00,74.5,63.1,29.82,East,90,4.0,11.0,68,0.00,,,0.01,meteohub,2013-06-05 13:12:00,
2013-06-05 07:17:00,74.8,64.4,29.82,SE,135,8.0,11.0,70,0.00,,,0.01,meteohub,2013-06-05 13:17:00,
2013-06-05 07:22:00,76.1,65.1,29.81,SE,135,7.0,11.0,69,0.00,,,0.01,meteohub,2013-06-05 13:22:00,
2013-06-05 07:27:00,77.0,65.7,29.81,ESE,113,7.0,8.0,68,0.00,,,0.01,meteohub,2013-06-05 13:27:00,
2013-06-05 07:32:00,77.4,65.1,29.81,SE,135,8.0,8.0,66,0.00,,,0.01,meteohub,2013-06-05 13:32:00,
2013-06-05 07:37:00,78.4,65.7,29.82,SE,135,6.0,8.0,65,0.00,,,0.01,meteohub,2013-06-05 13:37:00,
2013-06-05 07:42:00,78.8,65.1,29.81,East,90,6.0,8.0,63,0.00,,,0.01,meteohub,2013-06-05 13:42:00,
2013-06-05 07:47:00,78.8,64.8,29.82,SE,135,6.0,8.0,62,0.00,,,0.01,meteohub,2013-06-05 13:47:00,
2013-06-05 07:52:00,78.8,65.1,29.81,SE,135,4.0,8.0,63,0.00,,,0.01,meteohub,2013-06-05 13:52:00,
2013-06-05 07:57:00,79.5,65.3,29.82,South,180,8.0,8.0,62,0.00,,,0.01,meteohub,2013-06-05 13:57:00,
2013-06-05 08:02:00,80.4,66.2,29.80,South,180,5.0,8.0,62,0.00,,,0.01,meteohub,2013-06-05 14:02:00,
2013-06-05 08:07:00,81.9,65.7,29.81,NE,45,2.0,8.0,58,0.00,,,0.01,meteohub,2013-06-05 14:07:00,
2013-06-05 08:12:00,82.6,64.8,29.81,East,90,4.0,8.0,55,0.00,,,0.01,meteohub,2013-06-05 14:12:00,
2013-06-05 08:17:00,82.6,63.1,29.81,East,90,9.0,9.0,52,0.00,,,0.01,meteohub,2013-06-05 14:17:00,
2013-06-05 08:22:00,82.2,63.9,29.80,East,90,6.0,11.0,54,0.00,,,0.01,meteohub,2013-06-05 14:22:00,
2013-06-05 08:27:00,83.7,65.3,29.80,WSW,248,7.0,11.0,54,0.00,,,0.01,meteohub,2013-06-05 14:27:00,
2013-06-05 08:32:00,83.8,64.4,29.80,NE,45,13.0,13.0,52,0.00,,,0.01,meteohub,2013-06-05 14:32:00,
2013-06-05 08:38:00,82.8,63.3,29.79,NE,45,11.0,13.0,52,0.00,,,0.01,meteohub,2013-06-05 14:38:00,
2013-06-05 08:43:00,82.2,63.3,29.80,East,90,8.0,13.0,53,0.00,,,0.01,meteohub,2013-06-05 14:43:00,
2013-06-05 08:48:00,81.9,63.5,29.80,East,90,6.0,15.0,54,0.00,,,0.01,meteohub,2013-06-05 14:48:00,
2013-06-05 08:53:00,82.0,63.7,29.79,East,90,4.0,15.0,54,0.00,,,0.01,meteohub,2013-06-05 14:53:00,
2013-06-05 08:58:00,82.6,64.2,29.78,East,90,2.0,15.0,54,0.00,,,0.01,meteohub,2013-06-05 14:58:00,
2013-06-05 09:03:00,83.7,63.7,29.78,NW,315,5.0,11.0,51,0.00,,,0.01,meteohub,2013-06-05 15:03:00,
2013-06-05 09:08:00,83.8,63.1,29.78,NE,45,11.0,11.0,50,0.00,,,0.01,meteohub,2013-06-05 15:08:00,
2013-06-05 09:13:00,82.4,63.5,29.78,East,90,10.0,12.0,53,0.00,,,0.01,meteohub,2013-06-05 15:13:00,
2013-06-05 09:18:00,82.4,63.5,29.77,SW,225,2.0,13.0,53,0.00,,,0.01,meteohub,2013-06-05 15:18:00,
2013-06-05 09:23:00,84.0,65.1,29.78,NE,45,8.0,13.0,53,0.00,,,0.01,meteohub,2013-06-05 15:23:00,
2013-06-05 09:28:00,84.4,64.8,29.78,NE,45,11.0,12.0,52,0.00,,,0.01,meteohub,2013-06-05 15:28:00,
2013-06-05 09:33:00,83.7,64.2,29.77,NE,45,11.0,15.0,52,0.00,,,0.01,meteohub,2013-06-05 15:33:00,
2013-06-05 09:38:00,82.4,64.0,29.77,North,0,14.0,15.0,54,0.00,,,0.01,meteohub,2013-06-05 15:38:00,
2013-06-05 09:43:00,82.6,64.8,29.76,WSW,248,12.0,15.0,55,0.00,,,0.01,meteohub,2013-06-05 15:43:00,
2013-06-05 09:48:00,82.9,64.6,29.76,NE,45,12.0,15.0,54,0.00,,,0.01,meteohub,2013-06-05 15:48:00,
2013-06-05 09:53:00,82.9,65.1,29.76,NE,45,10.0,14.0,55,0.00,,,0.01,meteohub,2013-06-05 15:53:00,
2013-06-05 09:58:00,82.4,64.6,29.76,NNW,338,13.0,13.0,55,0.00,,,0.01,meteohub,2013-06-05 15:58:00,
2013-06-05 10:03:00,81.9,65.1,29.76,NE,45,11.0,13.0,57,0.00,,,0.01,meteohub,2013-06-05 16:03:00,
2013-06-05 10:08:00,82.4,65.1,29.75,NE,45,8.0,14.0,56,0.00,,,0.01,meteohub,2013-06-05 16:08:00,
2013-06-05 10:13:00,82.4,65.1,29.75,North,0,11.0,14.0,56,0.00,,,0.01,meteohub,2013-06-05 16:13:00,
2013-06-05 10:18:00,82.6,65.8,29.75,NE,45,14.0,14.0,57,0.00,,,0.01,meteohub,2013-06-05 16:18:00,
2013-06-05 10:23:00,82.4,65.7,29.75,North,0,10.0,14.0,57,0.00,,,0.01,meteohub,2013-06-05 16:23:00,
2013-06-05 10:28:00,82.6,65.8,29.74,North,0,12.0,15.0,57,0.00,,,0.01,meteohub,2013-06-05 16:28:00,
2013-06-05 10:33:00,83.1,65.8,29.74,NE,45,9.0,15.0,56,0.00,,,0.01,meteohub,2013-06-05 16:33:00,
2013-06-05 10:38:00,83.8,66.4,29.73,North,0,6.0,16.0,56,0.00,,,0.01,meteohub,2013-06-05 16:38:00,
2013-06-05 10:44:00,84.7,66.2,29.73,NE,45,9.0,16.0,54,0.00,,,0.01,meteohub,2013-06-05 16:44:00,
2013-06-05 10:49:00,84.6,66.0,29.73,NE,45,8.0,16.0,54,0.00,,,0.01,meteohub,2013-06-05 16:49:00,
2013-06-05 10:54:00,83.7,66.4,29.73,North,0,11.0,13.0,56,0.00,,,0.01,meteohub,2013-06-05 16:54:00,
2013-06-05 10:59:00,83.1,66.4,29.72,NE,45,12.0,13.0,57,0.00,,,0.01,meteohub,2013-06-05 16:59:00,
2013-06-05 11:04:00,82.4,65.7,29.72,NE,45,5.0,13.0,57,0.00,,,0.01,meteohub,2013-06-05 17:04:00,
2013-06-05 11:09:00,82.8,66.0,29.71,North,0,10.0,13.0,57,0.00,,,0.01,meteohub,2013-06-05 17:09:00,
2013-06-05 11:14:00,82.6,65.8,29.71,North,0,8.0,12.0,57,0.00,,,0.01,meteohub,2013-06-05 17:14:00,
2013-06-05 11:19:00,83.3,66.0,29.71,West,270,11.0,11.0,56,0.00,,,0.01,meteohub,2013-06-05 17:19:00,
2013-06-05 11:24:00,83.7,68.7,29.71,West,270,11.0,11.0,61,0.00,,,0.01,meteohub,2013-06-05 17:24:00,
2013-06-05 11:29:00,83.1,68.4,29.70,NW,315,8.0,15.0,61,0.00,,,0.01,meteohub,2013-06-05 17:29:00,
2013-06-05 11:34:00,81.5,67.6,29.70,NW,315,8.0,16.0,63,0.00,,,0.01,meteohub,2013-06-05 17:34:00,
2013-06-05 11:39:00,80.6,67.8,29.70,West,270,9.0,16.0,65,0.00,,,0.01,meteohub,2013-06-05 17:39:00,
2013-06-05 11:44:00,79.7,68.2,29.70,NW,315,5.0,16.0,68,0.00,,,0.01,meteohub,2013-06-05 17:44:00,
2013-06-05 11:49:00,79.2,68.5,29.70,NW,315,10.0,15.0,70,0.00,,,0.01,meteohub,2013-06-05 17:49:00,
2013-06-05 11:54:00,79.2,68.9,29.70,West,270,5.0,11.0,71,0.00,,,0.01,meteohub,2013-06-05 17:54:00,
2013-06-05 11:59:00,78.8,69.1,29.70,NW,315,9.0,11.0,72,0.00,,,0.01,meteohub,2013-06-05 17:59:00,
2013-06-05 12:05:00,77.9,69.3,29.70,NW,315,8.0,16.0,75,0.00,,,0.01,meteohub,2013-06-05 18:05:00,
2013-06-05 12:10:00,77.5,69.8,29.69,West,270,13.0,16.0,77,0.00,,,0.01,meteohub,2013-06-05 18:10:00,
2013-06-05 12:15:00,76.5,70.2,29.71,West,270,11.0,16.0,81,0.00,,,0.01,meteohub,2013-06-05 18:15:00,
2013-06-05 12:20:00,76.3,70.7,29.70,West,270,7.0,15.0,83,0.00,,,0.01,meteohub,2013-06-05 18:20:00,
2013-06-05 12:25:00,76.1,70.5,29.70,West,270,10.0,15.0,83,0.00,,,0.01,meteohub,2013-06-05 18:25:00,
2013-06-05 12:30:00,75.9,70.0,29.70,NW,315,10.0,15.0,82,0.00,,,0.01,meteohub,2013-06-05 18:30:00,
2013-06-05 12:35:00,75.9,69.6,29.70,NW,315,11.0,17.0,81,0.00,,,0.01,meteohub,2013-06-05 18:35:00,
2013-06-05 12:40:00,75.4,69.1,29.69,NW,315,11.0,17.0,81,0.00,,,0.01,meteohub,2013-06-05 18:40:00,
2013-06-05 12:45:00,75.6,69.3,29.69,West,270,18.0,18.0,81,0.00,,,0.01,meteohub,2013-06-05 18:45:00,
2013-06-05 12:50:00,75.9,70.0,29.69,NW,315,9.0,17.0,82,0.00,,,0.01,meteohub,2013-06-05 18:50:00,
2013-06-05 12:55:00,76.3,70.0,29.69,NW,315,8.0,18.0,81,0.00,,,0.01,meteohub,2013-06-05 18:55:00,
2013-06-05 13:00:00,76.5,69.8,29.68,West,270,6.0,18.0,80,0.00,,,0.01,meteohub,2013-06-05 19:00:00,
2013-06-05 13:05:00,77.0,69.6,29.68,NW,315,8.0,16.0,78,0.00,,,0.01,meteohub,2013-06-05 19:05:00,
2013-06-05 13:10:00,77.2,69.8,29.68,NW,315,10.0,17.0,78,0.00,,,0.01,meteohub,2013-06-05 19:10:00,
2013-06-05 13:15:00,78.6,70.3,29.68,North,0,4.0,17.0,76,0.00,,,0.01,meteohub,2013-06-05 19:15:00,
2013-06-05 13:20:00,79.3,70.0,29.68,NW,315,12.0,17.0,73,0.00,,,0.01,meteohub,2013-06-05 19:20:00,
2013-06-05 13:25:00,78.6,69.6,29.67,West,270,14.0,15.0,74,0.00,,,0.01,meteohub,2013-06-05 19:25:00,
2013-06-05 13:30:00,78.4,69.4,29.67,East,90,4.0,15.0,74,0.00,,,0.01,meteohub,2013-06-05 19:30:00,
2013-06-05 13:35:00,78.3,69.3,29.68,NW,315,12.0,15.0,74,0.00,,,0.01,meteohub,2013-06-05 19:35:00,
2013-06-05 13:40:00,77.7,69.1,29.68,NW,315,8.0,15.0,75,0.00,,,0.01,meteohub,2013-06-05 19:40:00,
2013-06-05 13:45:00,77.5,68.9,29.67,NW,315,8.0,15.0,75,0.00,,,0.01,meteohub,2013-06-05 19:45:00,
2013-06-05 13:50:00,77.4,68.9,29.68,West,270,14.0,15.0,75,0.00,,,0.01,meteohub,2013-06-05 19:50:00,
2013-06-05 13:55:00,77.0,69.3,29.67,NW,315,7.0,15.0,77,0.00,,,0.01,meteohub,2013-06-05 19:55:00,
2013-06-05 14:00:00,76.8,69.4,29.66,NW,315,14.0,14.0,78,0.00,,,0.01,meteohub,2013-06-05 20:00:00,
2013-06-05 14:05:00,76.3,69.3,29.65,West,270,11.0,15.0,79,0.00,,,0.01,meteohub,2013-06-05 20:05:00,
2013-06-05 14:11:00,75.7,69.1,29.66,NW,315,10.0,15.0,80,0.00,,,0.01,meteohub,2013-06-05 20:11:00,
2013-06-05 14:16:00,75.4,69.1,29.66,NW,315,4.0,14.0,81,0.00,,,0.01,meteohub,2013-06-05 20:16:00,
2013-06-05 14:21:00,75.2,69.6,29.65,East,90,4.0,12.0,83,0.00,,,0.01,meteohub,2013-06-05 20:21:00,
2013-06-05 14:27:00,75.0,70.2,29.66,North,0,4.0,11.0,85,0.00,,,0.01,meteohub,2013-06-05 20:27:00,
2013-06-05 14:32:00,74.7,69.8,29.66,West,270,3.0,8.0,85,0.00,,,0.01,meteohub,2013-06-05 20:32:00,
2013-06-05 14:37:00,74.5,69.6,29.67,NW,315,5.0,8.0,85,0.00,,,0.01,meteohub,2013-06-05 20:37:00,
2013-06-05 14:42:00,74.1,69.3,29.66,WNW,293,6.0,8.0,85,0.00,,,0.01,meteohub,2013-06-05 20:42:00,
2013-06-05 14:47:00,73.9,69.4,29.65,NW,315,5.0,8.0,86,0.00,,,0.01,meteohub,2013-06-05 20:47:00,
2013-06-05 14:52:00,73.4,68.9,29.66,North,0,11.0,11.0,86,0.00,,,0.01,meteohub,2013-06-05 20:52:00,
2013-06-05 14:57:00,72.7,68.5,29.67,North,0,3.0,11.0,87,0.00,,,0.01,meteohub,2013-06-05 20:57:00,
2013-06-05 15:02:00,72.3,68.5,29.66,NE,45,7.0,11.0,88,0.01,,,0.02,meteohub,2013-06-05 21:02:00,
2013-06-05 15:07:00,71.8,68.7,29.66,NW,315,4.0,11.0,90,0.01,,,0.02,meteohub,2013-06-05 21:07:00,
2013-06-05 15:12:00,71.4,68.9,29.67,North,0,8.0,8.0,92,0.01,,,0.02,meteohub,2013-06-05 21:12:00,
2013-06-05 15:17:00,71.1,68.5,29.66,NW,315,4.0,8.0,92,0.01,,,0.02,meteohub,2013-06-05 21:17:00,
2013-06-05 15:22:00,71.1,68.9,29.67,NW,315,4.0,8.0,93,0.01,,,0.02,meteohub,2013-06-05 21:22:00,
2013-06-05 15:27:00,71.2,69.4,29.67,NW,315,3.0,8.0,94,0.01,,,0.02,meteohub,2013-06-05 21:27:00,
2013-06-05 15:32:00,70.9,68.7,29.66,NE,45,6.0,9.0,93,0.01,,,0.02,meteohub,2013-06-05 21:32:00,
2013-06-05 15:37:00,70.3,67.8,29.66,North,0,5.0,9.0,92,0.01,,,0.02,meteohub,2013-06-05 21:37:00,
2013-06-05 15:42:00,70.5,68.0,29.67,North,0,4.0,9.0,92,0.01,,,0.02,meteohub,2013-06-05 21:42:00,
2013-06-05 15:47:00,70.7,68.2,29.67,North,0,6.0,8.0,92,0.01,,,0.02,meteohub,2013-06-05 21:47:00,
2013-06-05 15:52:00,71.1,68.9,29.67,NE,45,3.0,7.0,93,0.01,,,0.02,meteohub,2013-06-05 21:52:00,
2013-06-05 15:57:00,71.4,69.3,29.67,North,0,6.0,7.0,93,0.01,,,0.02,meteohub,2013-06-05 21:57:00,
2013-06-05 16:02:00,71.8,69.1,29.67,North,0,5.0,6.0,91,0.00,,,0.02,meteohub,2013-06-05 22:02:00,
2013-06-05 16:07:00,72.3,69.6,29.67,NE,45,4.0,8.0,91,0.00,,,0.02,meteohub,2013-06-05 22:07:00,
2013-06-05 16:12:00,72.9,69.8,29.66,North,0,3.0,8.0,90,0.00,,,0.02,meteohub,2013-06-05 22:12:00,
2013-06-05 16:17:00,73.0,69.6,29.66,North,0,2.0,8.0,89,0.00,,,0.02,meteohub,2013-06-05 22:17:00,
2013-06-05 16:22:00,73.2,69.8,29.66,North,0,4.0,6.0,89,0.00,,,0.02,meteohub,2013-06-05 22:22:00,
2013-06-05 16:27:00,73.4,70.0,29.67,NW,315,4.0,5.0,89,0.00,,,0.02,meteohub,2013-06-05 22:27:00,
2013-06-05 16:32:00,73.4,69.6,29.67,North,0,3.0,5.0,88,0.00,,,0.02,meteohub,2013-06-05 22:32:00,
2013-06-05 16:37:00,73.2,69.1,29.67,NW,315,5.0,5.0,87,0.00,,,0.02,meteohub,2013-06-05 22:37:00,
2013-06-05 16:42:00,73.0,68.9,29.68,NW,315,4.0,6.0,87,0.00,,,0.02,meteohub,2013-06-05 22:42:00,
2013-06-05 16:47:00,72.7,68.5,29.69,North,0,4.0,6.0,87,0.00,,,0.02,meteohub,2013-06-05 22:47:00,
2013-06-05 16:52:00,72.3,68.2,29.68,West,270,4.0,6.0,87,0.00,,,0.02,meteohub,2013-06-05 22:52:00,
2013-06-05 16:57:00,72.1,68.4,29.68,NW,315,0.0,7.0,88,0.00,,,0.02,meteohub,2013-06-05 22:57:00,
2013-06-05 17:02:00,72.0,68.2,29.69,North,0,3.0,7.0,88,0.00,,,0.02,meteohub,2013-06-05 23:02:00,
2013-06-05 17:07:00,71.8,68.0,29.69,NW,315,2.0,7.0,88,0.00,,,0.02,meteohub,2013-06-05 23:07:00,
2013-06-05 17:12:00,71.6,68.2,29.69,NW,315,4.0,4.0,89,0.00,,,0.02,meteohub,2013-06-05 23:12:00,
2013-06-05 17:17:00,71.4,68.7,29.70,North,0,2.0,6.0,91,0.00,,,0.02,meteohub,2013-06-05 23:17:00,
2013-06-05 17:22:00,71.2,68.7,29.70,NW,315,2.0,6.0,92,0.00,,,0.02,meteohub,2013-06-05 23:22:00,
2013-06-05 17:27:00,71.1,68.5,29.71,West,270,4.0,6.0,92,0.00,,,0.02,meteohub,2013-06-05 23:27:00,
2013-06-05 17:32:00,70.9,68.4,29.72,West,270,1.0,4.0,92,0.00,,,0.02,meteohub,2013-06-05 23:32:00,
2013-06-05 17:38:00,70.9,68.4,29.72,West,270,1.0,4.0,92,0.00,,,0.02,meteohub,2013-06-05 23:38:00,
2013-06-05 17:43:00,70.9,68.7,29.73,North,0,2.0,4.0,93,0.00,,,0.02,meteohub,2013-06-05 23:43:00,
2013-06-05 17:48:00,70.9,68.7,29.74,West,270,2.0,3.0,93,0.00,,,0.02,meteohub,2013-06-05 23:48:00,
2013-06-05 17:53:00,70.7,68.5,29.73,NW,315,2.0,3.0,93,0.00,,,0.02,meteohub,2013-06-05 23:53:00,
2013-06-05 17:58:00,70.7,68.5,29.75,North,0,4.0,4.0,93,0.00,,,0.02,meteohub,2013-06-05 23:58:00,
2013-06-05 18:03:00,70.5,68.4,29.74,NW,315,4.0,4.0,93,0.00,,,0.02,meteohub,2013-06-06 00:03:00,
2013-06-05 18:08:00,70.3,68.5,29.74,NW,315,2.0,6.0,94,0.00,,,0.02,meteohub,2013-06-06 00:08:00,
2013-06-05 18:13:00,70.2,68.4,29.75,NW,315,4.0,6.0,94,0.00,,,0.02,meteohub,2013-06-06 00:13:00,
2013-06-05 18:18:00,70.0,68.2,29.75,East,90,3.0,6.0,94,0.00,,,0.02,meteohub,2013-06-06 00:18:00,
2013-06-05 18:23:00,70.0,68.2,29.76,West,270,5.0,6.0,94,0.00,,,0.02,meteohub,2013-06-06 00:23:00,
2013-06-05 18:28:00,69.8,68.4,29.75,North,0,2.0,6.0,95,0.00,,,0.02,meteohub,2013-06-06 00:28:00,
2013-06-05 18:33:00,69.8,68.4,29.75,North,0,2.0,6.0,95,0.00,,,0.02,meteohub,2013-06-06 00:33:00,
2013-06-05 18:38:00,69.8,68.4,29.76,NW,315,4.0,6.0,95,0.00,,,0.02,meteohub,2013-06-06 00:38:00,
2013-06-05 18:43:00,69.6,68.4,29.77,NW,315,3.0,5.0,96,0.00,,,0.02,meteohub,2013-06-06 00:43:00,
2013-06-05 18:48:00,69.4,68.2,29.76,North,0,4.0,4.0,96,0.01,,,0.04,meteohub,2013-06-06 00:48:00,
2013-06-05 18:53:00,69.4,68.5,29.76,North,0,7.0,7.0,97,0.04,,,0.06,meteohub,2013-06-06 00:53:00,
2013-06-05 18:58:00,69.3,68.4,29.77,NW,315,4.0,7.0,97,0.04,,,0.06,meteohub,2013-06-06 00:58:00,
2013-06-05 19:03:00,69.3,68.4,29.77,North,0,4.0,7.0,97,0.04,,,0.06,meteohub,2013-06-06 01:03:00,
2013-06-05 19:08:00,69.1,68.2,29.77,West,270,2.0,7.0,97,0.04,,,0.06,meteohub,2013-06-06 01:08:00,
2013-06-05 19:13:00,68.9,68.4,29.78,NW,315,3.0,6.0,98,0.04,,,0.06,meteohub,2013-06-06 01:13:00,
2013-06-05 19:18:00,68.9,68.4,29.78,NW,315,2.0,6.0,98,0.04,,,0.06,meteohub,2013-06-06 01:18:00,
2013-06-05 19:23:00,68.9,68.4,29.79,NW,315,4.0,4.0,98,0.04,,,0.06,meteohub,2013-06-06 01:23:00,
2013-06-05 19:28:00,68.7,68.2,29.78,NW,315,4.0,4.0,98,0.04,,,0.06,meteohub,2013-06-06 01:28:00,
2013-06-05 19:33:00,68.5,68.0,29.79,SW,225,4.0,6.0,98,0.04,,,0.06,meteohub,2013-06-06 01:33:00,
2013-06-05 19:38:00,68.5,68.0,29.79,North,0,4.0,6.0,98,0.04,,,0.06,meteohub,2013-06-06 01:38:00,
2013-06-05 19:44:00,68.4,67.8,29.80,North,0,3.0,8.0,98,0.04,,,0.06,meteohub,2013-06-06 01:44:00,
2013-06-05 19:49:00,68.0,67.5,29.80,WNW,293,8.0,8.0,98,0.00,,,0.06,meteohub,2013-06-06 01:49:00,
2013-06-05 19:54:00,67.8,67.5,29.81,North,0,6.0,8.0,99,0.00,,,0.06,meteohub,2013-06-06 01:54:00,
2013-06-05 19:59:00,67.6,67.3,29.81,NW,315,5.0,8.0,99,0.00,,,0.06,meteohub,2013-06-06 01:59:00,
2013-06-05 20:04:00,67.5,67.1,29.81,North,0,8.0,9.0,99,0.00,,,0.06,meteohub,2013-06-06 02:04:00,
2013-06-05 20:09:00,67.3,66.9,29.81,NE,45,4.0,9.0,99,0.00,,,0.06,meteohub,2013-06-06 02:09:00,
2013-06-05 20:14:00,67.3,66.9,29.81,NW,315,4.0,9.0,99,0.00,,,0.06,meteohub,2013-06-06 02:14:00,
2013-06-05 20:19:00,67.3,66.9,29.81,NE,45,4.0,8.0,99,0.00,,,0.06,meteohub,2013-06-06 02:19:00,
2013-06-05 20:24:00,67.3,66.9,29.81,NW,315,3.0,8.0,99,0.00,,,0.06,meteohub,2013-06-06 02:24:00,
2013-06-05 20:29:00,67.1,66.7,29.81,NE,45,3.0,5.0,99,0.00,,,0.06,meteohub,2013-06-06 02:29:00,
2013-06-05 20:34:00,67.1,66.7,29.81,East,90,7.0,7.0,99,0.00,,,0.06,meteohub,2013-06-06 02:34:00,
2013-06-05 20:39:00,66.9,66.6,29.82,NW,315,5.0,6.0,99,0.00,,,0.06,meteohub,2013-06-06 02:39:00,
2013-06-05 20:44:00,66.7,66.4,29.81,North,0,7.0,7.0,99,0.00,,,0.06,meteohub,2013-06-06 02:44:00,
2013-06-05 20:49:00,66.6,66.2,29.81,North,0,4.0,7.0,99,0.00,,,0.06,meteohub,2013-06-06 02:49:00,
2013-06-05 20:54:00,66.4,66.0,29.81,North,0,4.0,7.0,99,0.00,,,0.06,meteohub,2013-06-06 02:54:00,
2013-06-05 20:59:00,66.4,66.0,29.82,NW,315,4.0,7.0,99,0.00,,,0.06,meteohub,2013-06-06 02:59:00,
2013-06-05 21:04:00,66.2,65.8,29.82,NE,45,4.0,6.0,99,0.00,,,0.06,meteohub,2013-06-06 03:04:00,
2013-06-05 21:09:00,66.2,65.8,29.82,North,0,4.0,7.0,99,0.00,,,0.06,meteohub,2013-06-06 03:09:00,
2013-06-05 21:14:00,66.2,65.8,29.82,North,0,6.0,7.0,99,0.00,,,0.06,meteohub,2013-06-06 03:14:00,
2013-06-05 21:19:00,65.8,65.5,29.82,North,0,4.0,7.0,99,0.00,,,0.06,meteohub,2013-06-06 03:19:00,
2013-06-05 21:24:00,66.2,65.8,29.82,North,0,5.0,6.0,99,0.00,,,0.06,meteohub,2013-06-06 03:24:00,
2013-06-05 21:29:00,66.2,65.8,29.82,NW,315,5.0,6.0,99,0.00,,,0.06,meteohub,2013-06-06 03:29:00,
2013-06-05 21:34:00,66.2,65.8,29.82,North,0,4.0,6.0,99,0.00,,,0.06,meteohub,2013-06-06 03:34:00,
2013-06-05 21:39:00,66.4,66.0,29.82,West,270,5.0,6.0,99,0.00,,,0.06,meteohub,2013-06-06 03:39:00,
2013-06-05 21:45:00,66.4,66.0,29.82,North,0,4.0,6.0,99,0.00,,,0.06,meteohub,2013-06-06 03:45:00,
2013-06-05 21:50:00,66.4,66.0,29.82,North,0,4.0,7.0,99,0.00,,,0.06,meteohub,2013-06-06 03:50:00,
2013-06-05 21:55:00,66.6,66.2,29.82,NW,315,5.0,7.0,99,0.00,,,0.06,meteohub,2013-06-06 03:55:00,
2013-06-05 22:00:00,66.6,66.2,29.81,West,270,1.0,7.0,99,0.00,,,0.06,meteohub,2013-06-06 04:00:00,
2013-06-05 22:01:00,66.6,66.2,29.82,NW,315,4.0,6.0,99,0.00,,,0.06,meteohub,2013-06-06 04:01:00,
2013-06-05 22:02:00,66.6,66.2,29.81,West,270,4.0,6.0,99,0.00,,,0.06,meteohub,2013-06-06 04:02:00,
2013-06-05 22:03:00,66.6,66.2,29.81,NW,315,7.0,7.0,99,0.00,,,0.06,meteohub,2013-06-06 04:03:00,
2013-06-05 22:08:00,66.9,66.6,29.81,NW,315,2.0,8.0,99,0.00,,,0.06,meteohub,2013-06-06 04:08:00,
2013-06-05 22:13:00,67.1,66.7,29.81,NW,315,6.0,8.0,99,0.00,,,0.06,meteohub,2013-06-06 04:13:00,
2013-06-05 22:18:00,67.3,66.9,29.81,NW,315,2.0,8.0,99,0.00,,,0.06,meteohub,2013-06-06 04:18:00,
2013-06-05 22:23:00,67.3,66.9,29.82,NW,315,5.0,8.0,99,0.00,,,0.06,meteohub,2013-06-06 04:23:00,
2013-06-05 22:28:00,67.5,67.1,29.81,NW,315,4.0,8.0,99,0.00,,,0.06,meteohub,2013-06-06 04:28:00,
2013-06-05 22:33:00,67.5,67.1,29.81,NW,315,5.0,6.0,99,0.00,,,0.06,meteohub,2013-06-06 04:33:00,
2013-06-05 22:38:00,67.5,67.1,29.81,West,270,2.0,6.0,99,0.00,,,0.06,meteohub,2013-06-06 04:38:00,
2013-06-05 22:43:00,67.6,67.1,29.81,NW,315,5.0,5.0,98,0.00,,,0.06,meteohub,2013-06-06 04:43:00,
2013-06-05 22:48:00,67.6,67.1,29.81,NW,315,3.0,5.0,98,0.00,,,0.06,meteohub,2013-06-06 04:48:00,
2013-06-05 22:53:00,67.5,66.6,29.80,North,0,1.0,7.0,97,0.00,,,0.06,meteohub,2013-06-06 04:53:00,
2013-06-05 22:59:00,67.5,66.6,29.81,North,0,0.0,7.0,97,0.00,,,0.06,meteohub,2013-06-06 04:59:00,
2013-06-05 23:04:00,67.3,66.0,29.81,NW,315,0.0,7.0,96,0.00,,,0.06,meteohub,2013-06-06 05:04:00,
2013-06-05 23:09:00,67.1,65.8,29.81,NW,315,4.0,4.0,96,0.00,,,0.06,meteohub,2013-06-06 05:09:00,
2013-06-05 23:14:00,67.3,66.0,29.81,West,270,3.0,4.0,96,0.00,,,0.06,meteohub,2013-06-06 05:14:00,
2013-06-05 23:19:00,67.3,66.0,29.80,West,270,2.0,5.0,96,0.00,,,0.06,meteohub,2013-06-06 05:19:00,
2013-06-05 23:24:00,67.1,65.8,29.80,NW,315,3.0,5.0,96,0.00,,,0.06,meteohub,2013-06-06 05:24:00,
2013-06-05 23:29:00,66.9,65.7,29.80,NW,315,2.0,5.0,96,0.00,,,0.06,meteohub,2013-06-06 05:29:00,
2013-06-05 23:34:00,66.9,65.7,29.79,West,270,2.0,3.0,96,0.00,,,0.06,meteohub,2013-06-06 05:34:00,
2013-06-05 23:39:00,66.7,65.5,29.79,NW,315,0.0,3.0,96,0.00,,,0.06,meteohub,2013-06-06 05:39:00,
2013-06-05 23:44:00,66.6,65.3,29.79,NW,315,0.0,3.0,96,0.00,,,0.06,meteohub,2013-06-06 05:44:00,
2013-06-05 23:49:00,66.6,65.3,29.79,West,270,0.0,3.0,96,0.00,,,0.06,meteohub,2013-06-06 05:49:00,
2013-06-05 23:54:00,66.2,64.9,29.78,North,0,0.0,3.0,96,0.00,,,0.06,meteohub,2013-06-06 05:54:00,
2013-06-05 23:59:00,66.2,64.9,29.79,North,0,0.0,0.0,96,0.00,,,0.06,meteohub,2013-06-06 05:59:00,